sat.trackr.live / text

‹ back to catalog

STARLINK-32083

NORAD 60343 · 2024-136Q

PAYLOAD ACTIVE UNKNOWN

§ Identity

Operator
Country
US
Launch date
2024-08-02
Launch site
AFETR
Launch vehicle
Mass (kg)
RCS (m²)

Purposes: comms

External: N2YO · Heavens-Above · Gunter

§ Orbital elements

Epoch: 2026-05-25T02:21:47.063232Z

Period
94.11 min
Inclination
53.1606°
Eccentricity
0.0001371
Mean motion
15.30195616 rev/d
Perigee alt
474.3 km
Apogee alt
476.2 km
Semi-major
6,853.4 km
B*
3.3729e-5
RAAN
80.6778°
Arg perigee
78.3233°
Mean anomaly
281.7922°
Rev number
10,136

§ Raw data

STARLINK-320831 60343U 24136Q   26145.09846138  .00000640  00000+0  33729-4 0  99962 60343  53.1606  80.6778 0001371  78.3233 281.7922 15.30195616101362

JSON: /api/v1/satellites/60343 · /tle

For live sub-satellite position, see the globe view (requires WebGL).

§ Visibility from observer

Set your observer location to see the next 7 days of passes ≥ 10°. The values pass through the URL so the page stays shareable.

No JS? Fill the form by hand. The geolocation button needs JavaScript.